Location: Kershaw
(34.5481°N, 80.5823°W)
Time: 16:55:39
(UTC+00:00)

Courier 1B Rocket - Pass Details

Date: 04 October 2022
Orbit: 920 x 1202 km, 28.2° (Epoch: 08 December)

Event Time Altitude Azimuth Distance (km) Brightness Sun altitude
Rises 21:44:40 0° 217° (SW) 3,931 9.1 14.8°
Reaches altitude 10° 21:48:15 10° 202° (SSW) 2,923 8.1 14.1°
Maximum altitude 21:53:19 21° 156° (SSE) 2,157 6.8 13.1°
Drops below altitude 10° 21:58:09 10° 110° (ESE) 2,776 6.9 12.2°
Sets 22:01:26 0° 95° (E) 3,680 7.4 11.5°
